This is the latest recevied weather packets stored in our database for station/object R1CBW-13. If no packets are shown the sender has not sent any weather packets the latest 10 day(s).
| Time | Temp. | Humidity | Pressure | Rain* | Wind** | Luminosity | Snow |
|---|---|---|---|---|---|---|---|
| 1777306037 | 7.22° C | 32% | 1005.9 hPa | 0 mm | - | - | - |
| 1777305976 | 6.11° C | 33% | 1005.7 hPa | 0 mm | - | - | - |
| 1777305916 | 7.22° C | 32% | 1005.5 hPa | 0 mm | - | - | - |
| 1777305857 | 6.67° C | 33% | 1005.4 hPa | 0 mm | - | - | - |
| 1777305796 | 6.67° C | 32% | 1005.4 hPa | 0 mm | - | - | - |
| 1777305736 | 6.67° C | 32% | 1005.4 hPa | 0 mm | - | - | - |
| 1777305676 | 6.67° C | 32% | 1005.6 hPa | 0 mm | - | - | - |
| 1777305616 | 6.67° C | 32% | 1005.4 hPa | 0 mm | - | - | - |
| 1777305556 | 6.11° C | 32% | 1005.6 hPa | 0 mm | - | - | - |
| 1777305496 | 6.11° C | 32% | 1005.5 hPa | 0 mm | - | - | - |
| 1777305436 | 5.56° C | 32% | 1005.4 hPa | 0 mm | - | - | - |
| 1777305376 | 6.67° C | 32% | 1005.4 hPa | 0 mm | - | - | - |
| 1777305316 | 6.11° C | 31% | 1005.7 hPa | 0 mm | - | - | - |
| 1777305256 | 6.11° C | 31% | 1005.7 hPa | 0 mm | - | - | - |
| 1777305196 | 6.11° C | 31% | 1005.5 hPa | 0 mm | - | - | - |
| 1777305136 | 6.11° C | 31% | 1005.9 hPa | 0 mm | - | - | - |
| 1777305076 | 6.11° C | 31% | 1005.5 hPa | 0 mm | - | - | - |
| 1777305016 | 7.22° C | 30% | 1005.4 hPa | 0 mm | - | - | - |
| 1777304956 | 6.67° C | 30% | 1005.5 hPa | 0 mm | - | - | - |
| 1777304896 | 7.22° C | 30% | 1005.5 hPa | 0 mm | - | - | - |
| 1777304836 | 7.22° C | 30% | 1005.3 hPa | 0 mm | - | - | - |
| 1777304776 | 6.11° C | 30% | 1005.6 hPa | 0 mm | - | - | - |
| 1777304716 | 6.11° C | 31% | 1005.5 hPa | 0 mm | - | - | - |
| 1777304656 | 6.67° C | 31% | 1005.5 hPa | 0 mm | - | - | - |
| 1777304596 | 6.11° C | 30% | 1005.6 hPa | 0 mm | - | - | - |
* Rain latest hour (hover to see other rain measurements)
** Current wind speed in m/s (hover to see current wind gust speed)